This is the latest recevied weather packets stored in our database for station/object WY1B. If no packets are shown the sender has not sent any weather packets the latest 10 day(s).
| Time | Temp. | Humidity | Pressure | Rain* | Wind** | Luminosity | Snow |
|---|---|---|---|---|---|---|---|
| 1787819505 | 33.33° C | 27% | 1003.2 hPa | 0 mm | - | 0 W/m² | - |
| 1787819204 | 33.33° C | 28% | 1003.2 hPa | 0 mm | - | 0 W/m² | - |
| 1787818899 | 33.89° C | 29% | 1003.4 hPa | 0 mm | - | 0 W/m² | - |
| 1787818597 | 33.33° C | 30% | 1003.2 hPa | 0 mm | - | 0 W/m² | - |
| 1787818294 | 33.33° C | 29% | 1003.2 hPa | 0 mm | - | 0 W/m² | - |
| 1787817993 | 33.33° C | 29% | 1003.2 hPa | 0 mm | - | 0 W/m² | - |
| 1787817691 | 33.33° C | 28% | 1003.2 hPa | 0 mm | - | 0 W/m² | - |
| 1787817390 | 33.89° C | 30% | 1003.2 hPa | 0 mm | - | 0 W/m² | - |
| 1787817086 | 33.33° C | 27% | 1003.2 hPa | 0 mm | - | 0 W/m² | - |
| 1787816785 | 33.33° C | 29% | 1003.2 hPa | 0 mm | - | 0 W/m² | - |
| 1787816480 | 33.89° C | 29% | 1003.1 hPa | 0 mm | - | 0 W/m² | - |
| 1787816175 | 33.89° C | 28% | 1003.2 hPa | 0 mm | - | 0 W/m² | - |
| 1787815870 | 33.89° C | 31% | 1003.3 hPa | 0 mm | - | 0 W/m² | - |
| 1787815567 | 33.89° C | 30% | 1003.3 hPa | 0 mm | - | 0 W/m² | - |
| 1787815262 | 33.89° C | 29% | 1003.3 hPa | 0 mm | - | 0 W/m² | - |
| 1787814958 | 33.89° C | 29% | 1003.3 hPa | 0 mm | - | 0 W/m² | - |
| 1787814657 | 34.44° C | 29% | 1003.2 hPa | 0 mm | - | 0 W/m² | - |
| 1787814357 | 34.44° C | 29% | 1003.1 hPa | 0 mm | - | 0 W/m² | - |
| 1787814053 | 35° C | 35% | 1003.3 hPa | 0 mm | - | 0 W/m² | - |
| 1787813748 | 34.44° C | 28% | 1003.3 hPa | 0 mm | - | 0 W/m² | - |
| 1787813443 | 34.44° C | 30% | 1003.2 hPa | 0 mm | - | 0 W/m² | - |
| 1787813139 | 34.44° C | 29% | 1003.3 hPa | 0 mm | - | 0 W/m² | - |
| 1787812834 | 34.44° C | 29% | 1003.2 hPa | 0 mm | - | 0 W/m² | - |
| 1787812530 | 34.44° C | 29% | 1003.1 hPa | 0 mm | - | 0 W/m² | - |
| 1787812230 | 35° C | 33% | 1003.2 hPa | 0 mm | - | 0 W/m² | - |
* Rain latest hour (hover to see other rain measurements)
** Current wind speed in m/s (hover to see current wind gust speed)